Location: Mohawk View
(42.7837°N, 73.7885°W)
Time: 07:57:52
(UTC+00:00)

USA 290 - Pass Details

Date: 17 June 2021
Orbit: 401 x 412 km, 73.6° (Epoch: 10 July)

Event Time Altitude Azimuth Distance (km) Brightness Sun altitude
Exits shadow 06:42:07 22° 119° (ESE) 937 3.9 -19.5°
Maximum altitude 06:42:38 23° 103° (ESE) 909 4.0 -19.4°
Drops below altitude 10° 06:45:16 10° 48° (NE) 1,470 6.0 -19.2°
Sets 06:47:33 0° 34° (NE) 2,334 7.7 -19.0°
